FW7361 Weather Reports


Display with metric or nautical units.
time (UTC)temp
F
wind
direction
speed
MPH
gust
MPH
rain 1hr
in
rain 24hr
in
rain mn
in
humidity
%
barometer
mb
20260504081608 47 360 2.0 6.0 0.00 0.00 0.00 56 1008.0
20260504044556 50 360 2.0 3.0 0.00 0.00 0.00 53 1009.4
20260504043101 50 0 0.0 2.0 0.00 0.00 0.00 52 1009.5
20260504041554 50 0 0.0 3.0 0.00 0.00 0.00 51 1009.6
20260504040132 51 0 0.0 2.0 0.00 0.00 0.00 50 1009.8
20260504034601 52 360 1.0 6.0 0.00 0.00 0.00 48 1009.8
20260504033058 54 360 2.0 4.0 0.00 0.00 0.00 47 1009.6
20260504031606 55 69 4.0 6.0 0.00 0.00 0.00 45 1009.5
20260504030058 55 360 3.0 5.0 0.00 0.00 0.00 42 1009.5
20260504024603 54 360 3.0 5.0 0.00 0.00 0.00 44 1009.6
20260504023058 56 360 3.0 4.0 0.00 0.00 0.00 41 1009.4
20260504021600 57 360 3.0 5.0 0.00 0.00 0.00 40 1009.4
20260504020109 56 360 3.0 5.0 0.00 0.00 0.00 42 1009.2
20260504014556 59 360 4.0 6.0 0.00 0.00 0.00 41 1009.3
20260504013053 62 360 5.0 9.0 0.00 0.00 0.00 33 1009.3
20260504011556 63 360 10.0 13.0 0.00 0.00 0.00 32 1009.2
20260504010100 65 360 6.0 13.0 0.00 0.00 0.00 30 1009.2
20260504004555 66 360 6.0 12.0 0.00 0.00 0.00 29 1009.4
20260504003054 66 360 8.0 16.0 0.00 0.00 0.00 29 1009.4
20260504001556 68 360 11.0 16.0 0.00 0.00 0.00 27 1009.5
20260504000101 68 360 10.0 16.0 0.00 0.00 0.00 26 1009.7
20260503234624 67 360 10.0 16.0 0.00 0.00 0.00 27 1009.9
20260503233058 68 360 8.0 17.0 0.00 0.00 0.00 27 1009.9
20260503231552 68 360 7.0 15.0 0.00 0.00 0.00 24 1010.0
20260503230056 66 360 14.0 20.0 0.00 0.00 0.00 24 1010.0
20260503224553 66 360 15.0 20.0 0.00 0.00 0.00 25 1010.1
20260503223056 67 360 3.0 14.0 0.00 0.00 0.00 25 1010.1
20260503221559 65 360 3.0 14.0 0.00 0.00 0.00 24 1010.5
20260503220055 66 360 12.0 19.0 0.00 0.00 0.00 23 1010.9
20260503214556 67 360 10.0 21.0 0.00 0.00 0.00 21 1010.4
20260503213054 67 360 16.0 26.0 0.00 0.00 0.00 22 1010.6
20260503211555 65 360 8.0 20.0 0.00 0.00 0.00 26 1010.9
20260503210053 65 360 11.0 24.0 0.00 0.00 0.00 28 1011.1
20260503204557 66 360 14.0 26.0 0.00 0.00 0.00 26 1011.1
20260503203057 70 360 10.0 25.0 0.00 0.00 0.00 24 1011.2
20260503201553 70 360 7.0 15.0 0.00 0.00 0.00 23 1011.3
20260503200057 70 360 7.0 18.0 0.00 0.00 0.00 21 1011.5
20260503194600 69 360 11.0 19.0 0.00 0.00 0.00 24 1011.7
20260503193057 67 360 3.0 16.0 0.00 0.00 0.00 22 1012.0
20260503191555 68 360 4.0 14.0 0.00 0.00 0.00 28 1012.2
20260503190055 67 360 5.0 11.0 0.00 0.00 0.00 28 1012.6
20260503184557 66 360 4.0 9.0 0.00 0.00 0.00 31 1013.1
20260503183057 65 360 3.0 13.0 0.00 0.00 0.00 35 1013.2
20260503181555 63 360 4.0 13.0 0.00 0.00 0.00 37 1013.6
20260503174559 61 360 3.0 12.0 0.00 0.00 0.00 39 1014.1
20260503173100 61 360 3.0 11.0 0.00 0.00 0.00 44 1014.5
20260503171559 60 360 2.0 10.0 0.00 0.00 0.00 43 1014.7
20260503110109 36 360 1.0 3.0 0.00 0.00 0.00 74 1015.4